Weather History for EGPH - May, 2013

Change the Weather History Date:

Wednesday, May 22, 2013

  Actual Average Record
Temperature  
Mean Temperature 50 °F -  
Max Temperature 57 °F 62 °F 71 °F (2001)
Min Temperature 42 °F 46 °F 35 °F (2004)
Degree Days  
Heating Degree Days 16    
Moisture  
Dew Point 38 °F    
Average Humidity 64    
Maximum Humidity 87    
Minimum Humidity 38    
Precipitation  
Precipitation 0.00 in 0.07 in - ()
Sea Level Pressure  
Sea Level Pressure 30.05 in    
Wind  
Wind Speed 7 mph ()    
Max Wind Speed 17 mph    
Max Gust Speed 31 mph    
Visibility 6.2 miles    
Events Rain    
Averages and records for this station are not official NWS values.
T = Trace of Precipitation, MM = Missing Value Source: Averaged Metar Reports

Daily Weather History Graph

Daily Weather History Graph

Search for Another Location

Airport or City:

Trip Planner

Search our weather history database for the weather conditions in past years. The results will help you decide how hot, cold, wet, or windy it might be!

Date:

Astronomy

May. 22, 2013 Rise Set
Actual Time 4:48 AM BST 9:32 PM BST
Civil Twilight 3:55 AM BST 10:25 PM BST
Nautical Twilight 2:25 AM BST 11:58 PM BST
Astronomical Twilight Sun does not set Sun does not set
Moon 6:09 PM BST (5/22) 3:20 AM BST (5/22)
Length of Visible Light 18h 29m
Length of Day
16h 43m
Waxing Gibbous, 90% of the Moon is Illuminated
May 22
Waxing Gibbous
May 25
Full
May 31
Last Quarter
Jun 8
New
Jun 16
First Quarter

Hourly Weather History & Observations

Time (BST) Temp. Windchill Dew Point Humidity Pressure Visibility Wind Dir Wind Speed Gust Speed Precip Events Conditions
12:20 AM 50.0 °F - 44.6 °F 82% 30.09 in 6.2 mi Calm Calm - N/A   Overcast
12:50 AM 50.0 °F - 44.6 °F 82% 30.09 in 6.2 mi West 2.3 mph - N/A   Overcast
1:20 AM 50.0 °F - 46.4 °F 87% 30.09 in 6.2 mi West 4.6 mph - N/A   Overcast
1:50 AM 50.0 °F - 44.6 °F 82% 30.09 in 6.2 mi West 5.8 mph - N/A   Overcast
2:20 AM 50.0 °F - 44.6 °F 82% 30.09 in 6.2 mi WSW 5.8 mph - N/A   Overcast
2:50 AM 48.2 °F - 44.6 °F 87% 30.09 in 6.2 mi WSW 5.8 mph - N/A   Mostly Cloudy
3:20 AM 48.2 °F - 42.8 °F 82% 30.09 in 6.2 mi WSW 6.9 mph - N/A   Mostly Cloudy
3:50 AM 48.2 °F - 42.8 °F 82% 30.06 in 6.2 mi WSW 5.8 mph - N/A   Mostly Cloudy
4:20 AM 46.4 °F 42.9 °F 42.8 °F 87% 30.06 in 6.2 mi WSW 6.9 mph - N/A   Scattered Clouds
4:50 AM 44.6 °F 41.4 °F 41.0 °F 87% 30.06 in 6.2 mi West 5.8 mph - N/A   Scattered Clouds
5:20 AM 44.6 °F 41.4 °F 41.0 °F 87% 30.06 in 6.2 mi WSW 5.8 mph - N/A   Scattered Clouds
5:50 AM 46.4 °F 43.5 °F 41.0 °F 81% 30.06 in 6.2 mi West 5.8 mph - N/A   Partly Cloudy
6:20 AM 48.2 °F - 42.8 °F 82% 30.06 in 6.2 mi West 6.9 mph - N/A   Partly Cloudy
6:50 AM 50.0 °F - 42.8 °F 76% 30.06 in 6.2 mi West 6.9 mph - N/A   Mostly Cloudy
7:20 AM 50.0 °F - 42.8 °F 76% 30.06 in 6.2 mi West 8.1 mph - N/A   Scattered Clouds
7:50 AM 50.0 °F - 42.8 °F 76% 30.09 in 6.2 mi WNW 6.9 mph - N/A   Mostly Cloudy
8:20 AM 50.0 °F - 41.0 °F 71% 30.09 in 6.2 mi NW 5.8 mph - N/A   Scattered Clouds
8:50 AM 51.8 °F - 41.0 °F 67% 30.09 in 6.2 mi NW 6.9 mph - N/A   Scattered Clouds
9:20 AM 51.8 °F - 41.0 °F 67% 30.09 in 6.2 mi WNW 8.1 mph - N/A   Scattered Clouds
9:50 AM 53.6 °F - 39.2 °F 58% 30.06 in 6.2 mi NNW 10.4 mph - N/A   Partly Cloudy
10:20 AM 53.6 °F - 35.6 °F 51% 30.06 in 6.2 mi WNW 10.4 mph - N/A   Scattered Clouds
10:50 AM 53.6 °F - 33.8 °F 47% 30.06 in 6.2 mi NW 9.2 mph - N/A   Scattered Clouds
11:20 AM 53.6 °F - 33.8 °F 47% 30.06 in 6.2 mi NW 9.2 mph - N/A   Scattered Clouds
11:50 AM 53.6 °F - 33.8 °F 47% 30.06 in - West 9.2 mph - N/A   Clear
12:20 PM 55.4 °F - 33.8 °F 44% 30.06 in - West 12.7 mph - N/A   Clear
12:50 PM 57.2 °F - 33.8 °F 41% 30.06 in - WNW 11.5 mph - N/A   Clear
1:20 PM 57.2 °F - 33.8 °F 41% 30.04 in - WNW 12.7 mph - N/A   Clear
1:50 PM 57.2 °F - 32.0 °F 38% 30.04 in - West 12.7 mph - N/A   Clear
2:20 PM 57.2 °F - 32.0 °F 38% 30.04 in 6.2 mi WNW 15.0 mph - N/A   Partly Cloudy
2:50 PM 57.2 °F - 32.0 °F 38% 30.04 in 6.2 mi WNW 13.8 mph - N/A   Partly Cloudy
3:20 PM 57.2 °F - 32.0 °F 38% 30.04 in 6.2 mi WNW 17.3 mph - N/A   Partly Cloudy
3:50 PM 57.2 °F - 32.0 °F 38% 30.01 in 6.2 mi WNW 16.1 mph 27.6 mph N/A   Scattered Clouds
4:20 PM 53.6 °F - 32.0 °F 44% 30.01 in 6.2 mi WNW 17.3 mph 31.1 mph N/A Rain Light Rain Showers
4:50 PM 51.8 °F - 37.4 °F 58% 30.04 in 6.2 mi WNW 10.4 mph - N/A Rain Light Rain Showers
5:20 PM 51.8 °F - 35.6 °F 54% 30.04 in 6.2 mi WNW 12.7 mph - N/A   Partly Cloudy
5:50 PM 53.6 °F - 35.6 °F 51% 30.01 in 6.2 mi NW 11.5 mph - N/A   Partly Cloudy
6:20 PM 51.8 °F - 35.6 °F 54% 30.01 in 6.2 mi WNW 13.8 mph - N/A   Partly Cloudy
6:50 PM 51.8 °F - 33.8 °F 50% 30.01 in 6.2 mi WNW 13.8 mph - N/A Rain Light Rain Showers
7:20 PM 51.8 °F - 33.8 °F 50% 30.01 in 6.2 mi NW 8.1 mph - N/A   Scattered Clouds
7:50 PM 46.4 °F 40.1 °F 33.8 °F 62% 30.04 in 6.2 mi NNW 15.0 mph 26.5 mph N/A   Mostly Cloudy
8:20 PM 44.6 °F 40.7 °F 37.4 °F 76% 30.04 in 6.2 mi NW 6.9 mph - N/A   Scattered Clouds
8:50 PM 46.4 °F 42.9 °F 35.6 °F 66% 30.01 in 6.2 mi NW 6.9 mph - N/A   Scattered Clouds
9:20 PM 44.6 °F 39.7 °F 33.8 °F 66% 30.01 in 6.2 mi WNW 9.2 mph - N/A   Scattered Clouds
9:50 PM 44.6 °F 39.2 °F 33.8 °F 66% 30.01 in 6.2 mi WNW 10.4 mph - N/A   Partly Cloudy
10:20 PM 44.6 °F 40.2 °F 33.8 °F 66% 30.04 in - West 8.1 mph - N/A   Clear
10:50 PM 42.8 °F 38.0 °F 33.8 °F 70% 30.04 in 6.2 mi WNW 8.1 mph - N/A   Scattered Clouds
11:20 PM 42.8 °F 38.6 °F 33.8 °F 70% 30.01 in - West 6.9 mph - N/A   Clear
11:50 PM 42.8 °F 38.6 °F 33.8 °F 70% 30.01 in 6.2 mi WNW 6.9 mph - N/A   Scattered Clouds